SCOUT A R/B, 2755

Orbit data source: Space-Track

SCOUT A R/B, 2755 is space debris in LEO originally from a launch on Fri, 14 Apr 1967 UTC launched from the Air Force Western Test Range (AFWTR). Debris objects in space refer to the collection of defunct objects orbiting the Earth. Examples of debris include non-operational satellites, rocket bodies, and fragments generated from explosions, collisions, or faulty payload assembly.

Loading next visibility...
Identifier
2755, 1967-034B
Orbit
LEO
Country
Flag of USUS
Related business
Manufacturer
ABL
Mission
Spacecraft
Bus & Motor
ALTAIR, Unknown motor
Mass
33 kg wet, 33 kg dry
Launch date (UTC)
1967-04-14 (58 years ago)
Launch vehicle
Unknown
Launch site
Air Force Western Test Range (AFWTR)
Object type
Payload
Rocket body
Debris
Shape & HBR
Cyl, 0.8 m
Radar Cross Section
0.687 m², Medium (>0.1 m² and < 1m²)

Expand to show TLE details & history
Last TLE update: 12 hours ago

TLE from 12 hours ago
0 SCOUT A R/B
1 02755U 67034B   25260.99527172  .00000200  00000-0  28182-3 0  9992
2 02755  90.2611  48.7330 0027334  66.6025  52.5733 13.53984774885208
Epoch: 2025-09-17T23:53Z
TLE epoch observation values (Epoch: 2025-09-17T23:53:11.476Z)
Latitude
60.66328°
Longitude
-126.26585°
Altitude
1,055.742 km
Speed
7.336 km/s
True Right ascension
15h 16m 46s
True Declination
60° 31' 19"
Sunlit
Object was in daylight at epoch
Visualization orbit readout
Latitude
Unknown
Longitude
Unknown
Altitude
Unknown
Speed
Unknown
Apparent Right ascension
Unknown
Apparent Declination
Unknown
Sunlit
N/A
Visualization observer readout
Local Sidereal Time
04:18:34
Azimuth
Unknown
Elevation
Unknown
Doppler factor
Unknown
Orbital elements
Apogee altitude
1,074.995 km
Perigee altitude
1,034.361 km
Semi-major axis
7,432.815 km
Eccentricity
0.00273
Inclination
90.2611°
RAAN
48.733°
Arg. of periapsis
66.6025°
True anomaly
52.82256°
Mean anomaly
52.5733°
Eccentric anomaly
52.69788°
Mean motion
3.38698 °/min
Orbital period
106.29 mins
BSTAR
0.00028182
Loading maneuver chart data...
Computing Atmospheric mass density...
Loading historical data...
Loading historical data...
Loading historical data...
Loading historical data...
Loading historical data...
Loading historical data...
Loading historical data...

Documentation

Showing up to 5 results
|